Terminal Aerodrome Forecast
Issued by NWS

Home | Current Version | Previous Version | Text Only | Print | Product List | Glossary On
Versions: 1 2 3 4 5 6 7 8 9 10 11 12 13
000
FTUS44 KJAN 140500
TAFHKS
TAF
KHKS 140520Z 1406/1506 00000KT P6SM SKC
     FM141000 00000KT 5SM BR SKC
     FM141400 23006KT P6SM SCT030 SCT050
     FM142000 22007KT P6SM VCTS BKN050CB
     FM150100 17006KT P6SM SCT250=

USA.gov is the U.S. government's official web portal to all federal, state and local government web resources and services.